TITAN 3C TRANSTAGE DEB, 38700

Orbit data source: Space-Track

TITAN 3C TRANSTAGE DEB, 38700 is space debris in GEO originally from a launch on Thu, 26 Sep 1968 UTC launched from the Air Force Eastern Test Range (AFETR). Debris objects in space refer to the collection of defunct objects orbiting the Earth. Examples of debris include non-operational satellites, rocket bodies, and fragments generated from explosions, collisions, or faulty payload assembly.

Not visible in the next 10 days
Identifier
38700, 1968-081AA
Orbit
GEO
Country
Flag of USUS
Related business
Manufacturer
Unknown
Mission
Spacecraft
Bus & Motor
Unknown
Mass
Unknown
Launch date (UTC)
1968-09-26 (58 years ago)
Launch vehicle
Unknown
Launch site
Air Force Eastern Test Range (AFETR)
Object type
Payload
Rocket body
Debris
Shape & HBR
Unknown shape, 1.1 m
Radar Cross Section
Small (<0.1 m²)

Expand to show TLE details & history
Last TLE update: 1 day ago

TLE from 1 day ago
0 TITAN 3C TRANSTAGE DEB
1 38700U 68081AA  26111.47839591 -.00000133  00000-0  00000+0 0  9995
2 38700   2.1329  62.3818 0121714 212.3386 146.8089  1.02731156 64019
Epoch: 2026-04-21T11:28Z
TLE epoch observation values (Epoch: 2026-04-21T11:28:53.406Z)
Latitude
Longitude
40.50184°
Altitude
35,534.861 km
Speed
3.068 km/s
True Right ascension
04h 09m 06s
True Declination
0° 00' 00"
Sunlit
Object was in daylight at epoch
Visualization orbit readout
Latitude
Unknown
Longitude
Unknown
Altitude
Unknown
Speed
Unknown
Apparent Right ascension
Unknown
Apparent Declination
Unknown
Sunlit
N/A
Visualization observer readout
Local Sidereal Time
18:22:48
Azimuth
Unknown
Elevation
Unknown
Doppler factor
Unknown
Orbital elements
Apogee altitude
35,617.014 km
Perigee altitude
34,607.027 km
Semi-major axis
41,490.157 km
Eccentricity
0.01217
Inclination
2.1329°
RAAN
62.3818°
Arg. of periapsis
212.3386°
True anomaly
147.5628°
Mean anomaly
146.8089°
Eccentric anomaly
147.18681°
Mean motion
0.25682 °/min
Orbital period
1,401.77 mins
BSTAR
0
Loading maneuver chart data...
Computing Atmospheric mass density...

Documentation

Showing up to 5 results
|